Tracking 28096 objects as of 28-Sep-2023
HD Live streaming from Space Station
objects crossing your sky now

SL-14 R/B

Track SL-14 R/B now!
10-day predictions


NORAD ID: 20741
Int'l Code: 1990-070G
Perigee: 1,419.1 km
Apogee: 1,476.6 km
Inclination: 82.6 °
Period: 114.7 minutes
Semi major axis: 7818 km
RCS: 6.347 m2 (large)
Launch date: August 8, 1990
Source: Commonwealth of Independent States (former USSR) (CIS)
Launch site: PLESETSK MISSILE AND SPACE COMPLEX (PKMTR)

Note: This is a ROCKET BODY
Your satellite tracking list
Your tracking list is empty




NASA's NSSDC Master Catalog

Two Line Element Set (TLE):
1 20741U 90070G   23270.41629447  .00000036  00000-0  15516-3 0  9991
2 20741  82.5803 336.8083 0036809 120.7827 251.2533 12.55705203518809
Source of the keplerian elements: AFSPC